Lexington, NE

11:59 AM CDT on September 27, 2016 (GMT -0500)
Kelly

Weather History for KLXN - April, 2013

Change the Weather History Date:

Friday, April 12, 2013

  Actual Average Record
Temperature  
Mean Temperature 38 °F -  
Max Temperature 48 °F 59 °F 78 °F (2003)
Min Temperature 28 °F 33 °F 14 °F (1997)
Degree Days  
Heating Degree Days 27    
Moisture  
Dew Point 31 °F    
Average Humidity 77    
Maximum Humidity 94    
Minimum Humidity 58    
Precipitation  
Precipitation 0.00 in - - ()
Sea Level Pressure  
Sea Level Pressure 29.92 in    
Wind  
Wind Speed 12 mph (NW)    
Max Wind Speed 21 mph    
Max Gust Speed 26 mph    
Visibility 10 miles    
Events Rain    
Averages and records for this station are not official NWS values.
T = Trace of Precipitation, MM = Missing Value Source: NWS Daily Summary

Daily Weather History Graph

Daily Weather History Graph

Search for Another Location

Airport or City:

Trip Planner

Search our weather history database for the weather conditions in past years. The results will help you decide how hot, cold, wet, or windy it might be!

Date:

Astronomy

Apr. 12, 2013 Rise Set
Actual Time 7:04 AM CDT 8:15 PM CDT
Civil Twilight 6:36 AM CDT 8:44 PM CDT
Nautical Twilight 6:02 AM CDT 9:17 PM CDT
Astronomical Twilight 5:27 AM CDT 9:53 PM CDT
Moon 8:14 AM CDT (4/12) 10:49 PM CDT (4/12)
Length of Visible Light 14h 07m
Length of Day
13h 11m
Waxing Crescent, 5% of the Moon is Illuminated
Apr 12
Waxing Crescent
Apr 18
First Quarter
Apr 25
Full
May 2
Last Quarter
May 9
New

Hourly Weather History & Observations

Time (CDT) Temp. Windchill Dew Point Humidity Pressure Visibility Wind Dir Wind Speed Gust Speed Precip Events Conditions
12:15 AM 30.0 °F 19.1 °F 25.2 °F 82% 29.84 in 10.0 mi NW 15.0 mph - N/A   Clear
12:35 AM 30.0 °F 20.0 °F 24.8 °F 81% 29.84 in 10.0 mi NW 12.7 mph - N/A   Clear
12:55 AM 29.3 °F 20.2 °F 24.8 °F 83% 29.84 in 10.0 mi NW 10.4 mph - N/A   Clear
1:15 AM 29.3 °F 19.6 °F 25.5 °F 86% 29.84 in 10.0 mi NW 11.5 mph - N/A   Clear
1:35 AM 28.9 °F 18.6 °F 25.2 °F 86% 29.85 in 10.0 mi WNW 12.7 mph - N/A   Clear
1:55 AM 29.1 °F 18.9 °F 25.2 °F 85% 29.85 in 10.0 mi WNW 12.7 mph - N/A   Clear
2:15 AM 28.9 °F 18.2 °F 24.8 °F 84% 29.85 in 10.0 mi WNW 13.8 mph - N/A   Clear
2:35 AM 29.1 °F 18.4 °F 25.2 °F 85% 29.85 in 10.0 mi NW 13.8 mph - N/A   Clear
2:55 AM 29.1 °F 18.9 °F 25.3 °F 86% 29.85 in 10.0 mi WNW 12.7 mph - N/A   Clear
3:15 AM 28.9 °F 19.2 °F 25.3 °F 86% 29.85 in 10.0 mi WNW 11.5 mph - N/A   Clear
3:35 AM 29.3 °F 19.1 °F 25.5 °F 86% 29.85 in 10.0 mi WNW 12.7 mph - N/A   Clear
3:55 AM 29.7 °F 19.6 °F 25.7 °F 85% 29.85 in 10.0 mi WNW 12.7 mph - N/A   Clear
4:15 AM 30.2 °F 20.2 °F 26.1 °F 85% 29.85 in 10.0 mi WNW 12.7 mph - N/A   Mostly Cloudy
4:35 AM 31.5 °F 20.1 °F 26.6 °F 82% 29.84 in 10.0 mi WNW 17.3 mph - N/A   Mostly Cloudy
4:55 AM 31.6 °F 20.0 °F 26.6 °F 82% 29.84 in 10.0 mi WNW 18.4 mph - N/A   Mostly Cloudy
5:15 AM 31.6 °F 21.2 °F 26.6 °F 82% 29.84 in 10.0 mi WNW 15.0 mph - N/A   Overcast
5:35 AM 31.5 °F 21.8 °F 27.0 °F 83% 29.85 in 10.0 mi WNW 12.7 mph - N/A   Overcast
5:55 AM 31.8 °F 22.8 °F 27.5 °F 84% 29.85 in 10.0 mi WNW 11.5 mph - N/A   Overcast
6:15 AM 32.4 °F 22.1 °F 27.5 °F 82% 29.85 in 10.0 mi WNW 15.0 mph - N/A   Overcast
6:35 AM 32.9 °F 24.7 °F 27.9 °F 82% 29.85 in 10.0 mi WNW 10.4 mph - N/A   Overcast
6:55 AM 32.9 °F 25.3 °F 28.2 °F 83% 29.86 in 10.0 mi NW 9.2 mph - N/A   Overcast
7:15 AM 33.3 °F 24.6 °F 28.4 °F 82% 29.86 in 10.0 mi WNW 11.5 mph - N/A   Overcast
7:35 AM 32.9 °F 22.4 °F 28.2 °F 83% 29.87 in 10.0 mi WNW 16.1 mph - N/A   Mostly Cloudy
7:55 AM 33.3 °F 23.2 °F 28.4 °F 82% 29.87 in 10.0 mi WNW 15.0 mph - N/A   Scattered Clouds
8:15 AM 34.5 °F 24.5 °F 29.1 °F 81% 29.88 in 10.0 mi WNW 16.1 mph - N/A   Mostly Cloudy
8:35 AM 34.7 °F 24.3 °F 29.3 °F 81% 29.89 in 10.0 mi WNW 17.3 mph - N/A   Scattered Clouds
8:55 AM 34.5 °F 25.7 °F 29.3 °F 81% 29.90 in 10.0 mi WNW 12.7 mph - N/A   Mostly Cloudy
9:15 AM 33.8 °F 25.8 °F 29.3 °F 84% 29.90 in 10.0 mi WNW 10.4 mph - N/A   Mostly Cloudy
9:55 AM 37.8 °F 30.2 °F 31.3 °F 77% 29.90 in 10.0 mi WNW 11.5 mph - N/A   Clear
10:15 AM 38.5 °F 30.7 °F 31.8 °F 77% 29.91 in 10.0 mi WNW 12.7 mph - N/A   Clear
10:35 AM 39.2 °F 32.5 °F 32.0 °F 75% 29.91 in 10.0 mi NW 10.4 mph - N/A   Clear
10:55 AM 40.3 °F 34.4 °F 31.8 °F 72% 29.92 in 10.0 mi NW 9.2 mph - N/A   Clear
11:15 AM 41.4 °F 35.2 °F 31.5 °F 68% 29.92 in 10.0 mi NW 10.4 mph - N/A   Clear
11:35 AM 41.7 °F 35.2 °F 31.6 °F 67% 29.93 in 10.0 mi North 11.5 mph - N/A   Clear
11:55 AM 42.3 °F 36.8 °F 32.0 °F 67% 29.93 in 10.0 mi NW 9.2 mph - N/A   Clear
12:15 PM 42.1 °F 38.4 °F 32.4 °F 68% 29.94 in 10.0 mi North 5.8 mph - N/A   Scattered Clouds
12:35 PM 42.8 °F 37.5 °F 32.7 °F 68% 29.94 in 10.0 mi NNW 9.2 mph - N/A   Mostly Cloudy
12:55 PM 42.8 °F 37.0 °F 32.4 °F 67% 29.94 in 10.0 mi North 10.4 mph 16.1 mph N/A   Scattered Clouds
1:15 PM 43.7 °F 39.1 °F 32.5 °F 65% 29.94 in 10.0 mi North 8.1 mph - N/A   Mostly Cloudy
1:35 PM 44.6 °F 39.7 °F 33.4 °F 65% 29.94 in 10.0 mi NW 9.2 mph 17.3 mph N/A   Scattered Clouds
1:55 PM 45.3 °F 40.6 °F 33.4 °F 63% 29.94 in 10.0 mi NW 9.2 mph - N/A   Scattered Clouds
2:15 PM 46.0 °F 40.2 °F 34.3 °F 64% 29.95 in 10.0 mi NNW 12.7 mph 24.2 mph N/A   Scattered Clouds
2:35 PM 46.4 °F 40.4 °F 34.2 °F 62% 29.95 in 10.0 mi NNW 13.8 mph 18.4 mph N/A   Scattered Clouds
2:55 PM 46.8 °F - 34.3 °F 62% 29.95 in 10.0 mi North 12.7 mph - N/A   Clear
3:15 PM 47.5 °F - 34.5 °F 61% 29.94 in 10.0 mi NNW 10.4 mph 17.3 mph N/A   Clear
3:35 PM 47.3 °F - 33.3 °F 58% 29.94 in 10.0 mi NW 9.2 mph - N/A   Clear
3:55 PM 48.2 °F - 34.3 °F 59% 29.94 in 10.0 mi NW 11.5 mph 21.9 mph N/A   Scattered Clouds
4:15 PM 47.3 °F - 33.6 °F 59% 29.94 in 10.0 mi NNW 10.4 mph 19.6 mph N/A   Mostly Cloudy
4:35 PM 46.8 °F - 34.0 °F 61% 29.95 in 10.0 mi NNW 13.8 mph - N/A   Overcast
4:55 PM 47.5 °F - 34.3 °F 60% 29.96 in 10.0 mi NNW 20.7 mph 26.5 mph N/A   Overcast
5:15 PM 45.5 °F 39.9 °F 33.4 °F 63% 29.96 in 10.0 mi NNW 11.5 mph 18.4 mph N/A   Overcast
5:35 PM 44.8 °F 38.3 °F 33.6 °F 65% 29.97 in 10.0 mi NW 13.8 mph - N/A   Overcast
5:55 PM 43.9 °F 38.3 °F 34.7 °F 70% 29.97 in 10.0 mi NW 10.4 mph - N/A Rain Light Rain
6:15 PM 44.1 °F 36.8 °F 35.2 °F 71% 29.97 in 10.0 mi NW 16.1 mph 20.7 mph N/A   Light Drizzle
6:35 PM 43.9 °F 37.5 °F 35.8 °F 73% 29.97 in 10.0 mi NNW 12.7 mph - N/A   Mostly Cloudy
6:55 PM 43.7 °F 38.1 °F 35.1 °F 72% 29.97 in 10.0 mi NW 10.4 mph - N/A   Scattered Clouds
7:15 PM 42.4 °F 37.5 °F 35.2 °F 76% 29.97 in 10.0 mi WNW 8.1 mph - N/A   Scattered Clouds
7:35 PM 42.8 °F 38.6 °F 36.3 °F 78% 29.97 in 10.0 mi WNW 6.9 mph - N/A   Overcast
7:55 PM 42.3 °F 37.9 °F 36.5 °F 80% 29.97 in 10.0 mi NW 6.9 mph - N/A   Mostly Cloudy
8:15 PM 41.2 °F 35.5 °F 36.3 °F 83% 29.98 in 10.0 mi NW 9.2 mph - N/A   Overcast
8:35 PM 41.0 °F 36.4 °F 36.5 °F 84% 29.98 in 10.0 mi WNW 6.9 mph - N/A   Overcast
8:55 PM 39.9 °F 34.5 °F 35.6 °F 85% 29.97 in 10.0 mi NW 8.1 mph - N/A   Scattered Clouds
9:15 PM 38.3 °F 33.9 °F 34.7 °F 87% 29.98 in 10.0 mi WNW 5.8 mph - N/A   Scattered Clouds
9:35 PM 38.7 °F 34.3 °F 35.6 °F 89% 29.98 in 10.0 mi West 5.8 mph - N/A   Mostly Cloudy
9:55 PM 37.8 °F 34.2 °F 35.1 °F 90% 29.99 in 10.0 mi WNW 4.6 mph - N/A   Scattered Clouds
10:15 PM 36.3 °F 31.6 °F 34.0 °F 91% 29.99 in 10.0 mi West 5.8 mph - N/A   Clear
10:35 PM 36.5 °F 33.9 °F 34.9 °F 94% 29.99 in 10.0 mi West 3.5 mph - N/A   Clear
10:55 PM 34.9 °F 29.0 °F 32.9 °F 92% 30.00 in 10.0 mi SSW 6.9 mph - N/A   Scattered Clouds
11:15 PM 35.2 °F - 33.4 °F 93% 30.00 in 10.0 mi Calm Calm - N/A   Mostly Cloudy
11:35 PM 35.2 °F - 33.4 °F 93% 30.00 in 10.0 mi Calm Calm - N/A   Mostly Cloudy
11:55 PM 35.1 °F - 33.1 °F 92% 30.00 in 10.0 mi Calm Calm - N/A   Mostly Cloudy